Location: Falniów
(50.3639°N, 19.9642°E)
Time: 18:39:42
(UTC+00:00)

SL-08 R/B - Pass Details

Date: 30 April 2026
Orbit: 667 x 728 km, 98.5° (Epoch: 13 May)

Event Time Altitude Azimuth Distance (km) Brightness Sun altitude
Rises 19:06:00 0° 16° (NNE) 3,163 7.0 -10.0°
Reaches altitude 10° 19:08:19 10° 19° (NNE) 2,235 6.2 -10.3°
Maximum altitude 19:13:13 67° 102° (ESE) 785 3.4 -10.9°
Drops below altitude 10° 19:18:02 10° 186° (S) 2,196 5.5 -11.5°
Sets 19:20:17 0° 189° (S) 3,103 6.3 -11.7°
